Location: Unspecified
(0.0000°N, 0.0000°E)
Time: 06:12:37
(UTC+00:00)

Vanguard 2 Rocket - Pass Details

Date: 11 October 2023
Orbit: 552 x 3312 km, 32.9° (Epoch: 06 December)

Event Time Altitude Azimuth Distance (km) Brightness Sun altitude
Rises 13:55:38 0° 312° (NW) 6,896 11.6 57.1°
Reaches altitude 10° 14:00:05 10° 315° (NW) 6,065 11.5 56.0°
Maximum altitude 14:20:11 66° 35° (NE) 3,402 10.3 51.1°
Drops below altitude 10° 14:36:47 10° 114° (ESE) 5,175 10.5 47.0°
Sets 14:40:11 0° 116° (ESE) 5,886 10.7 46.2°
